Hai Yang 4-01

operational
NORAD ID: 61936 Int'l Des: 2024-208 Owner: GYZ/CASC Country: CN
LEOCIRCULARRETROGRADESSO

About Hai Yang 4-01

Description loading...

Live Position

Loading 3D Globe...

Upcoming Passes

Altitude History

Altitude vs Time

uPlot chart will show altitude changes over time

Two-Line Element Set

1 61936U 24208A 26015.99309583 .00000365 00000-0 64083-4 0 9990
2 61936 98.0058 25.8137 0000920 63.7261 296.4042 14.73303430 63036
Epoch: Jan 15, 2026 • Age: 10 hours

Current Status

Altitude 656.0 km
Velocity 7.53 km/s
Sub-Earth Point 41.51°N, 116.21°E
Launch Date Nov 13, 2024
Age 1.1 years
Type other

Technical Details

Classification Payload
Mass 1500.00 kg
Dry Mass 1500.00 kg
Total Mass 1500.00 kg
Length 1.00 m
Diameter 1.00 m
Span 4.00 m
Shape Box + 2 Pan
Manufacturer CAST
Bus Type CAST-968
Phase Status In Orbit
Owner/State GYZ/CASC/CN

Large Constellations

Loading constellations...